Tracking 19475 objects as of 18-Jan-2019
HD Live streaming from Space Station
objects crossing your sky now

OPTUS D1

Track OPTUS D1 now!
OPTUS D1 is classified as:


NORAD ID: 29495
Int'l Code: 2006-043B
Perigee: 35,778.1 km
Apogee: 35,809.4 km
Inclination: 0.0 °
Period: 1,436.1 minutes
Semi major axis: 42164 km
RCS: 0.003 m2 (small)
Launch date: October 13, 2006
Source: Australia (AUS)
Launch site: FRENCH GUIANA (FRGUI)

OPTUS D1 will provide fixed communications and satellite broadcast services over Australia and New Zealand
aabbcc
Your satellite tracking list
Your tracking list is empty




NASA's NSSDC Master Catalog

Two Line Element Set (TLE):
1 29495U 06043B   19017.72780619 -.00000102  00000-0  00000+0 0  9993
2 29495   0.0115  86.5432 0003709 209.8416 242.4627  1.00271866 44999
Source of the keplerian elements: AFSPC